When you browse on this site, cookies collect data to enhance your experience and personalize the content and advertising you see.
Visit our Privacy Policy to learn more. By continuing to use the site, you agree to this use of cookies and data.
  • In Sweden
  • List of Countries
  • For 7 days
  • Water Temperature
  • Weather Map
  • Weather Widgets
  • user-avatar
    Login

    Hourly Weather Borlange

    Today, 22 September, Sunday

    Time Temperature Precipitation Wind Pressure Humidity
    00:00 +10°C° 0 mm 0 mps 749 mmHg 82%
    01:00 +10°C° 0 mm 1 mps 749 mmHg 84%
    02:00 +10°C° 0 mm 1 mps 749 mmHg 85%
    03:00 +10°C° 0 mm 1 mps 749 mmHg 86%
    04:00 +10°C° 0 mm 1 mps 749 mmHg 87%
    05:00 +10°C° 0 mm 1 mps 750 mmHg 88%
    06:00 +8°C° 0 mm 2 mps 750 mmHg 89%
    07:00 +8°C° 0 mm 2 mps 751 mmHg 91%
    08:00 +9°C° 0 mm 2 mps 751 mmHg 87%
    09:00 +9°C° 0 mm 3 mps 752 mmHg 83%
    10:00 +10°C° 0 mm 3 mps 752 mmHg 79%
    11:00 +10°C° 0 mm 3 mps 752 mmHg 74%
    12:00 +10°C° 0 mm 3 mps 753 mmHg 70%
    13:00 +10°C° 0 mm 2 mps 753 mmHg 66%
    14:00 +10°C° 0 mm 2 mps 753 mmHg 64%
    15:00 +12°C° 0 mm 2 mps 753 mmHg 63%
    16:00 +12°C° 0 mm 2 mps 753 mmHg 61%
    17:00 +9°C° 0 mm 2 mps 753 mmHg 66%
    18:00 +8°C° 0 mm 2 mps 754 mmHg 71%
    19:00 +7°C° 0 mm 2 mps 754 mmHg 76%
    20:00 +6°C° 0 mm 2 mps 754 mmHg 78%
    21:00 +6°C° 0 mm 2 mps 754 mmHg 80%
    22:00 +5°C° 0 mm 2 mps 755 mmHg 82%
    23:00 +7°C° 0 mm 1 mps 755 mmHg 80%

    Tomorrow, 23 September, Monday

    Time Temperature Precipitation Wind Pressure Humidity
    00:00 +7°C° 0 mm 1 mps 755 mmHg 79%
    01:00 +7°C° 0 mm 1 mps 755 mmHg 77%
    02:00 +7°C° 0 mm 1 mps 755 mmHg 77%
    03:00 +7°C° 0 mm 1 mps 754 mmHg 77%
    04:00 +7°C° 0 mm 1 mps 754 mmHg 76%
    05:00 +7°C° 0 mm 1 mps 754 mmHg 75%
    06:00 +7°C° 0 mm 1 mps 754 mmHg 74%
    07:00 +8°C° 0 mm 1 mps 754 mmHg 73%
    08:00 +7°C° 0 mm 2 mps 754 mmHg 70%
    09:00 +8°C° 0 mm 2 mps 754 mmHg 66%
    10:00 +8°C° 0 mm 2 mps 754 mmHg 63%
    11:00 +9°C° 0 mm 2 mps 753 mmHg 61%
    12:00 +9°C° 0 mm 2 mps 753 mmHg 60%
    13:00 +10°C° 0 mm 2 mps 753 mmHg 59%
    14:00 +10°C° 0 mm 2 mps 752 mmHg 59%
    15:00 +10°C° 0 mm 2 mps 752 mmHg 59%
    16:00 +10°C° 0 mm 2 mps 751 mmHg 59%
    17:00 +11°C° 0 mm 1 mps 751 mmHg 63%
    18:00 +10°C° 0 mm 1 mps 751 mmHg 68%
    19:00 +9°C° 0 mm 1 mps 750 mmHg 72%
    20:00 +9°C° 0 mm 1 mps 750 mmHg 75%
    21:00 +8°C° 0 mm 1 mps 750 mmHg 77%
    22:00 +8°C° 0 mm 1 mps 750 mmHg 80%
    23:00 +8°C° 0 mm 1 mps 750 mmHg 80%

    Day after tomorrow, 24 September, Tuesday

    Time Temperature Precipitation Wind Pressure Humidity
    00:00 +8°C° 0 mm 1 mps 750 mmHg 79%
    01:00 +8°C° 0 mm 1 mps 749 mmHg 79%
    02:00 +8°C° 0 mm 1 mps 749 mmHg 80%
    03:00 +8°C° 0 mm 1 mps 749 mmHg 80%
    04:00 +8°C° 0 mm 1 mps 748 mmHg 81%
    05:00 +8°C° 0 mm 1 mps 748 mmHg 81%
    06:00 +8°C° 0 mm 1 mps 748 mmHg 81%
    07:00 +8°C° 0 mm 1 mps 748 mmHg 81%
    08:00 +9°C° 0 mm 1 mps 748 mmHg 77%
    09:00 +10°C° 0 mm 1 mps 748 mmHg 72%
    10:00 +11°C° 0 mm 1 mps 747 mmHg 68%
    11:00 +12°C° 0 mm 1 mps 747 mmHg 65%
    12:00 +13°C° 0 mm 1 mps 747 mmHg 61%
    13:00 +14°C° 0 mm 1 mps 747 mmHg 58%
    14:00 +14°C° 0 mm 1 mps 746 mmHg 59%
    15:00 +14°C° 0 mm 1 mps 746 mmHg 61%
    16:00 +14°C° 0 mm 1 mps 746 mmHg 62%
    17:00 +13°C° 0 mm 1 mps 745 mmHg 66%
    18:00 +12°C° 0 mm 1 mps 745 mmHg 70%
    19:00 +11°C° 0 mm 1 mps 745 mmHg 75%
    20:00 +11°C° 0 mm 1 mps 745 mmHg 77%
    21:00 +10°C° 0 mm 0 mps 745 mmHg 79%
    22:00 +10°C° 0 mm 0 mps 745 mmHg 81%
    23:00 +11°C° 0 mm 1 mps 745 mmHg 82%

    25 September, Wednesday

    Time Temperature Precipitation Wind Pressure Humidity
    00:00 +10°C° 0 mm 1 mps 745 mmHg 82%
    01:00 +10°C° 0 mm 1 mps 745 mmHg 83%
    02:00 +10°C° 0 mm 1 mps 745 mmHg 81%
    03:00 +9°C° 0 mm 2 mps 745 mmHg 80%
    04:00 +9°C° 0 mm 2 mps 745 mmHg 78%
    05:00 +9°C° 0 mm 2 mps 745 mmHg 79%
    06:00 +8°C° 0 mm 3 mps 745 mmHg 80%
    07:00 +8°C° 0 mm 3 mps 745 mmHg 81%
    08:00 +8°C° 0 mm 3 mps 745 mmHg 80%
    09:00 +8°C° 0 mm 4 mps 745 mmHg 80%
    10:00 +8°C° 0 mm 4 mps 746 mmHg 79%
    11:00 +8°C° 0 mm 4 mps 746 mmHg 74%
    12:00 +10°C° 0 mm 4 mps 746 mmHg 69%
    13:00 +10°C° 0 mm 4 mps 746 mmHg 64%
    14:00 +10°C° 0 mm 4 mps 746 mmHg 66%
    15:00 +8°C° 0 mm 4 mps 746 mmHg 68%
    16:00 +9°C° 0 mm 3 mps 746 mmHg 70%
    17:00 +8°C° 0 mm 3 mps 746 mmHg 75%
    18:00 +7°C° 0 mm 3 mps 746 mmHg 79%
    19:00 +7°C° 0 mm 3 mps 747 mmHg 84%
    20:00 +7°C° 0 mm 2 mps 747 mmHg 86%
    21:00 +6°C° 0 mm 2 mps 747 mmHg 88%
    22:00 +6°C° 0 mm 2 mps 747 mmHg 90%
    23:00 +6°C° 0 mm 2 mps 747 mmHg 91%

    26 September, Thursday

    Time Temperature Precipitation Wind Pressure Humidity
    00:00 +8°C° 0 mm 1 mps 748 mmHg 92%
    01:00 +8°C° 0 mm 1 mps 748 mmHg 93%
    02:00 +7°C° 0 mm 1 mps 748 mmHg 94%
    03:00 +7°C° 0 mm 1 mps 748 mmHg 95%
    04:00 +6°C° 0 mm 1 mps 748 mmHg 96%
    05:00 +6°C° 0 mm 1 mps 748 mmHg 96%
    06:00 +6°C° 0 mm 1 mps 748 mmHg 96%
    07:00 +6°C° 0 mm 1 mps 749 mmHg 96%
    08:00 +8°C° 0 mm 1 mps 749 mmHg 87%
    09:00 +8°C° 0 mm 2 mps 749 mmHg 78%
    10:00 +10°C° 0 mm 2 mps 750 mmHg 70%
    11:00 +12°C° 0 mm 2 mps 750 mmHg 65%
    12:00 +12°C° 0 mm 2 mps 750 mmHg 61%
    13:00 +13°C° 0 mm 2 mps 749 mmHg 56%
    14:00 +13°C° 0 mm 2 mps 749 mmHg 57%
    15:00 +13°C° 0 mm 2 mps 749 mmHg 58%
    16:00 +12°C° 0 mm 2 mps 749 mmHg 59%
    17:00 +10°C° 0 mm 2 mps 749 mmHg 65%
    18:00 +8°C° 0 mm 2 mps 749 mmHg 72%
    19:00 +7°C° 0 mm 2 mps 749 mmHg 79%
    20:00 +7°C° 0 mm 1 mps 750 mmHg 84%
    21:00 +6°C° 0 mm 1 mps 750 mmHg 89%
    22:00 +5°C° 0 mm 1 mps 750 mmHg 94%
    23:00 +5°C° 0 mm 1 mps 750 mmHg 95%

    27 September, Friday

    Time Temperature Precipitation Wind Pressure Humidity
    00:00 +4°C° 0 mm 1 mps 750 mmHg 96%
    01:00 +3°C° 0 mm 0 mps 750 mmHg 97%
    02:00 +3°C° 0 mm 0 mps 750 mmHg 97%
    03:00 +2°C° 0 mm 0 mps 750 mmHg 97%
    04:00 +2°C° 0 mm 0 mps 750 mmHg 97%
    05:00 +2°C° 0 mm 0 mps 750 mmHg 97%
    06:00 +2°C° 0 mm 0 mps 750 mmHg 97%
    07:00 +3°C° 0 mm 0 mps 750 mmHg 97%
    08:00 +6°C° 0 mm 1 mps 750 mmHg 87%
    09:00 +7°C° 0 mm 2 mps 750 mmHg 78%
    10:00 +8°C° 0 mm 2 mps 750 mmHg 69%
    11:00 +9°C° 0 mm 2 mps 750 mmHg 63%
    12:00 +10°C° 0 mm 2 mps 750 mmHg 58%
    13:00 +11°C° 0 mm 3 mps 750 mmHg 52%
    14:00 +11°C° 0 mm 3 mps 749 mmHg 54%
    15:00 +12°C° 0 mm 2 mps 749 mmHg 57%
    16:00 +10°C° 0 mm 2 mps 749 mmHg 59%
    17:00 +9°C° 0 mm 2 mps 749 mmHg 67%
    18:00 +7°C° 0 mm 2 mps 749 mmHg 76%
    19:00 +6°C° 0 mm 1 mps 749 mmHg 84%
    20:00 +6°C° 0 mm 1 mps 749 mmHg 87%
    21:00 +6°C° 0 mm 1 mps 749 mmHg 90%
    22:00 +5°C° 0 mm 1 mps 748 mmHg 92%
    23:00 +4°C° 0 mm 2 mps 748 mmHg 93%
    Show more